Tracking 22836 objects as of 17-Apr-2021
HD Live streaming from Space Station
objects crossing your sky now

HUSKYSAT-1

Track HUSKYSAT-1 now!
10-day predictions
HUSKYSAT-1 is classified as:


NORAD ID: 45119
Int'l Code: 2019-071J
Perigee: 458.7 km
Apogee: 475.2 km
Inclination: 51.6 °
Period: 93.8 minutes
Semi major axis: 6837 km
RCS: Unknown
Launch date: November 2, 2019
Source: United States (US)
Launch site: WALLOPS ISLAND (WLPIS)

Uplink (MHz): 145.910-145.940
Downlink (MHz): 435.840-435.810
Beacon (MHz):
Mode: SSB
Call sign:
Status: Inactive


Uplink (MHz):
Downlink (MHz):
Beacon (MHz): 435.800/24049.000
Mode: 1200bps BPSK
Call sign:
Status: Inactive

aabbcc
Your satellite tracking list
Your tracking list is empty




NASA's NSSDC Master Catalog

Two Line Element Set (TLE):
1 45119U 19071J   21107.11319747  .00003282  00000-0  10497-3 0  9991
2 45119  51.6423 334.2334 0012087  70.5354 289.6934 15.35365782 67747
Source of the keplerian elements: AFSPC